Regional Weather Roundup
Issued by NWS Charleston, SC

Current Version | Previous Version | Text Only | Print | Product List | Glossary Off
Versions: 1 2 3 4 5 6 7 8 9 10 11 12 13 14 15 16 17 18 19 20 21 22 23 24 25 26 27 28 29 30 31 32 33 34 35 36 37 38 39 40 41 42 43 44 45 46 47 48 49 50

957
ASUS42 KCHS 231012
RWRCHS

REGIONAL WEATHER ROUNDUP
NATIONAL WEATHER SERVICE CHARLESTON SC
600 AM EDT SUN JUL 23 2017

NOTE: "FAIR" INDICATES FEW OR NO CLOUDS BELOW 12,000 FEET WITH NO
SIGNIFICANT WEATHER AND/OR OBSTRUCTIONS TO VISIBILITY.

NOT ALL STATIONS ARE QUALITY CONTROLLED. USE DATA WITH CAUTION...
ESPECIALLY DEWPOINT OBSERVATIONS.

SCZ027-030-031-034>040-042>050-231100-
...SOUTHEAST SOUTH CAROLINA...

CITY           SKY/WX    TMP DP  RH WIND       PRES   REMARKS
N CHARLESTON   PTCLDY    77  74  90 SW7       29.94R
WATERFRONT PRK   N/A     79  76  91 VRB2      29.92R
JOHNS ISLAND   FAIR      79  75  89 SW6       29.95R
PINOPOLIS        N/A     79  75  89 SW8       29.86R
MONCKS CORNER  FAIR      75  73  94 SW6       29.94R
SUMMERVILLE    FAIR      73  73 100 CALM      29.95S
BEAUFORT MCAS  PTCLDY    78  76  93 SW8       29.96R
BEAUFORT ARPT  FAIR      77  73  88 SW7       29.96R
HILTON HEAD IS NOT AVBL
WALTERBORO     SUNNY     73  73 100 SW3       29.95S
ALLENDALE      NOT AVBL

...SOUTHERN MIDLANDS AND PEE DEE...

CITY           SKY/WX    TMP DP  RH WIND       PRES   REMARKS
GEORGETOWN     FAIR      75  75 100 SW5       29.95R
KINGSTREE      FAIR      75  72  88 CALM      29.93R
ORANGEBURG     CLEAR     75  73  93 SW6       29.93S
BARNWELL       PTSUNNY   79  77  94 SW3       29.93S
AIKEN          FAIR      73  72  94 SW3       29.96S
MANNING        FAIR      77  75  94 W5        29.93R
COLUMBIA       CLEAR     78  72  81 W3        29.90S
SUMTER         CLEAR     77  73  87 SW7       29.89S
FLORENCE       CLEAR     77  75  93 SW7       29.91S
MYRTLE BEACH   NOT AVBL
N MYRTLE BEACH CLEAR     79  75  87 SW9       29.93R

$$

GAZ063-065-086>088-099>101-113>116-118-119-134>141-150-231100-
...SOUTHEAST GEORGIA...

CITY           SKY/WX    TMP DP  RH WIND       PRES   REMARKS
SAVANNAH ARPT  MOCLDY    75  74  96 SW6       29.97R
HUNTER AAF     CLOUDY    76  75  94 SW6       29.95R
FORT STEWART   CLOUDY    77  74  92 SW6       29.95R
STATESBORO     CLEAR     77  77 100 SW3       29.96R
SYLVANIA       SUNNY     76  76  99 CALM      29.97R
CLAXTON        FAIR      77  76  96 CALM      29.97R

...CSRA...CENTRAL AND FAR SOUTHEAST GEORGIA...

CITY           SKY/WX    TMP DP  RH WIND       PRES   REMARKS
THOMSON        CLEAR     75  73  92 W3        29.98S
AUGUSTA-BUSH   CLEAR     79  75  87 SW6       29.92R
AUGUSTA-DANIEL CLEAR     79  72  79 SW5       29.94R
SWAINSBORO     FAIR      75  75 100 CALM      29.97R
VIDALIA        CLEAR     77  75  94 SW3       29.97R
EASTMAN        FAIR      77  76  98 CALM      29.99R
HAZLEHURST     FAIR      77  77 100 SW5       29.97R
ALMA           CLOUDY    78  75  90 SW6       29.99R
WAYCROSS       CLOUDY    79  79 100 SW6       30.00R
JESUP          NOT AVBL
BAXLEY         CLOUDY    77  77 100 W5        29.98R
BRUNSWICK      CLOUDY    77  77 100 SW10      30.00R
SAINT SIMONS   MOCLDY    78  76  93 SW8       29.99R

$$

SCZ027-028-034-036>038-045-046-048>050-GAZ119-141-231100-
...LAKE AND SUPPLEMENTAL COASTAL OBSERVATIONS...

STATION/POSITION TIME  TEMP    WIND        PRES    WAVE   SWELL
                       AIR SEA DIR/SP/G            HT/PER HT/PER/DIR
                 (UTC) (F)     (DEG/KT/KT) (MB)    (FT/S) (FT/S/D)
WINYAH BAY       0845   79     240/  6     1013.0
LAKE MURRAY      NOT AVBL
ACE BASIN NERRS  0845   78     240/  1     1014.0
FORT PULASKI     0948   78 86  240/  7/ 11 1015.1R
SAPELO ISLAND    0900   78     230/ 10     1015.0

$$

ANZ835-935-AMZ111-154-330-350-352-354-370-450-454-472-231100-
...C-MAN AND BUOY OBSERVATIONS...

STATION/POSITION TIME  TEMP    WIND        PRES    WAVE   SWELL
                       AIR SEA DIR/SP/G            HT/PER HT/PER/DIR
                 (UTC) (F)     (DEG/KT/KT) (MB)    (FT/S) (FT/S/D)
BUOY 41004       0950   81 83  230/ 16/ 19 1014.0R   5/ 5   2/130/ 8
BUOY 41008       0950   80 80  210/ 14/ 16 1014.8R   3/ 9   2/ 80/ 9
FOLLY BEACH CMAN 0900   80     240/  6/  8 1014.3S
CAPERS NEARSHORE 0908   81 83  260/ 14/ 19 1013.4R
FRIPP NEARSHORE  0908   82 85  240/ 14/ 17 1013.5S


STATION/POSITION TIME  TEMP    WIND        PRES    WAVE   SWELL
                       AIR SEA DIR/SP/G            HT/PER HT/PER/DIR
                 (UTC) (F)     (DEG/KT/KT) (MB)    (FT/S) (FT/S/D)
5E ST. MARYS GA  0930      81                N/A     2/ 8
FRYING PAN BUOY  0950   83 83  220/ 19/ 23 1013.9R   5/ 5   2/130/ 9
BUOY 41025       0950   83 85  240/ 23/ 27 1011.8R   5/ 6   2/160/ 9
CAPE LOOKOUT NC  1000   81     230/ 12/ 18 1012.7R
BUOY 41002       0850   83 83  210/ 17/ 21 1015.4    5/ 9   3/ 90/ 9
BUOY 41010       0950   84 85  180/ 10/ 12 1016.8R   3/ 9   3/110/ 9
ST AUGUSTINE FL  1000   76 77  200/  6/  7 1016.4R


$$




USA.gov is the U.S. government's official web portal to all federal, state and local government web resources and services.